Temp_Advection
nan nan nan nan nan nan nan nan nan nan nan nan nan nan nan nan nan nan nan nan nan nan nan nan nan nan nan nan nan nan nan nan nan nan nan nan nan nan nan nan nan nan nan nan
nan 0 -0 -0 -0 -0 -0 -0 0 -0 -0 0 0 -0 -0 -0 -0 -1 -1 -1 -0 -0 -0 -0 -1 -1 -2 -2 -2 -2 -3 -3 -1 -0 -0 -0 -1 -1 -1 0 0 -0 -0 nan
nan 0 -0 -1 -0 -0 -0 -0 -0 -0 -0 -0 -0 0 -0 -0 -0 -0 -0 -0 -0 -0 -0 -0 -0 -1 -2 -2 -2 -1 -0 -2 -3 -1 -1 -1 -1 -1 -1 -0 0 0 -1 nan
nan -0 -1 -0 -0 0 0 -0 0 -0 0 0 0 0 0 1 0 0 0 0 0 0 0 0 -0 -0 -1 -1 -1 -2 -1 -1 -1 -2 -2 -2 -1 -0 -0 0 -0 -0 -0 nan
nan -0 0 0 0 0 -0 0 0 -0 0 0 0 -0 0 1 1 1 0 0 0 0 0 0 0 -0 -0 -1 -1 -1 -1 -1 -1 -2 -2 -2 -1 -0 -0 0 0 -0 0 nan
nan -0 -0 -0 -0 1 -0 0 1 1 1 0 0 0 0 1 1 2 1 0 0 0 -0 0 0 0 -0 -0 -0 -1 -1 -1 -1 -1 -1 -1 -0 -0 -0 1 0 -0 -0 nan
nan 0 0 -0 -0 -0 -0 -0 -1 0 0 0 0 1 1 0 0 1 1 1 0 -0 -0 0 1 1 0 0 0 -0 -0 -0 -1 -1 -1 -1 -1 -1 -0 1 1 0 -0 nan
nan -0 -0 0 0 -0 -0 -0 0 0 0 0 1 0 0 -0 0 0 0 0 1 -0 0 1 1 1 1 1 0 0 0 0 0 0 -1 -0 -1 -1 -1 0 1 1 0 nan
nan -0 -0 -0 -0 -0 -0 -0 0 0 0 -0 -0 -0 -0 -0 -0 -0 -0 0 0 0 1 1 1 1 1 1 1 1 0 0 1 1 1 0 -0 -0 0 1 0 0 0 nan
nan -0 -0 -0 -0 0 -0 0 0 -0 -0 -0 -0 -0 -0 -0 -0 -0 -0 -0 -0 0 0 0 0 -0 0 1 1 1 0 0 1 0 -0 -0 -0 -0 -1 -1 -0 -1 -1 nan
nan -1 -0 0 0 0 -0 0 0 -0 -0 -0 -0 -0 -0 -0 -0 -0 -0 -0 -0 -0 -0 0 0 -0 1 0 0 0 -0 0 0 -0 -0 -1 -1 -1 -1 -1 -1 -1 -1 nan
nan 0 -0 -0 -0 -0 -0 0 0 -0 -0 -0 -0 -0 -0 -0 -0 -0 -0 -0 -0 -0 0 0 0 0 0 -0 1 -0 -1 -0 -0 -0 -0 -0 -0 -0 0 -0 -0 -0 -0 nan
nan -0 -0 -0 -0 -0 -0 -0 -0 -0 -0 -0 -0 -0 -0 -0 -0 -0 -0 0 0 0 0 1 1 -0 -0 -0 0 -1 -0 1 0 -0 -1 -0 -0 0 -1 -0 0 -0 -0 nan
nan -0 0 -0 -0 -0 -0 -0 -0 -0 -0 -0 -0 -0 -0 -0 -0 -0 0 1 1 1 1 1 1 1 0 1 0 1 1 0 -0 -0 -1 -0 -0 -0 -0 -0 -0 -1 -0 nan
nan -0 -0 -0 -0 -0 -0 -0 -0 -0 -0 -0 -0 0 0 0 0 0 1 1 1 1 1 1 1 -0 1 1 0 1 0 -0 0 0 -0 0 -0 -0 -1 -1 -1 -1 -1 nan
nan -0 -0 -0 -0 -0 -0 -0 -0 -0 -0 -0 -0 0 0 0 0 0 0 0 0 0 0 0 -0 0 1 0 0 -0 -0 0 1 -0 -0 -0 -1 -1 -1 -1 -2 -2 -2 nan
nan -0 0 -0 -0 -0 -0 -0 -0 -0 0 0 0 0 0 0 0 0 0 0 0 1 0 0 0 0 0 0 -0 0 0 0 0 -1 -1 -2 -2 -2 -2 -2 -1 -1 -1 nan
nan 0 0 0 0 0 0 0 0 0 0 0 0 0 0 0 0 -0 0 0 0 0 -0 -0 -0 0 0 -0 -0 0 0 0 -1 -1 -1 -1 -1 -1 -1 -1 -1 -1 -0 nan
nan 0 0 0 0 0 0 0 0 0 0 0 0 0 0 0 0 -0 -0 0 0 -0 -0 -0 -0 -0 -0 -1 -0 -0 -0 0 -0 -0 0 -0 -1 -1 -1 -1 -0 -0 -0 nan
nan 0 0 0 0 0 0 0 0 0 0 0 0 0 0 0 0 -0 0 -0 0 -0 -0 0 0 0 0 0 0 0 0 0 -0 -0 -1 -1 -1 -1 -0 1 1 0 -0 nan
nan 0 0 0 0 0 0 0 0 0 0 0 0 0 0 0 0 0 0 0 0 0 0 0 0 0 0 0 0 0 0 -0 -0 -0 -1 -1 -0 0 1 1 0 -0 0 nan
nan 0 0 0 0 0 0 0 0 0 0 0 0 0 0 0 0 0 0 0 0 0 0 0 0 0 0 0 0 0 0 -0 0 0 0 0 0 1 1 0 -0 0 1 nan
nan 0 0 0 0 0 0 0 0 0 0 0 0 0 0 0 0 0 0 0 0 0 0 0 0 0 0 0 0 0 0 0 -0 -0 0 0 0 0 0 0 0 1 1 nan
nan 0 0 0 0 0 0 0 0 0 0 0 0 0 0 0 0 0 0 0 0 0 0 0 0 0 0 0 0 0 0 0 0 0 0 0 0 0 0 0 0 0 0 nan
nan 0 0 0 0 0 0 0 0 0 0 0 0 0 0 0 0 0 0 0 0 0 0 0 0 0 0 0 0 0 0 0 0 0 0 0 0 0 0 0 0 0 0 nan
nan 0 0 0 0 0 0 0 0 0 -0 -0 0 0 0 0 0 0 0 0 0 0 0 0 0 0 0 0 0 0 0 0 0 0 0 0 0 0 0 0 0 0 0 nan
nan nan nan nan nan nan nan nan nan nan nan nan nan nan nan nan nan nan nan nan nan nan nan nan nan nan nan nan nan nan nan nan nan nan nan nan nan nan nan nan nan nan nan nan
Wind_Speed
10 13 15 15 20 21 22 12 7 7 7 14 16 19 22 26 26 26 27 28 29 28 28 27 27 28 25 27 26 24 27 29 34 34 28 30 34 34 35 38 43 45 42 42
10 13 21 16 17 17 17 14 5 7 6 18 20 21 19 28 31 32 34 33 28 27 27 27 28 27 29 28 26 25 28 30 32 35 30 30 34 36 35 36 39 43 45 43
3 5 0 8 11 8 8 6 9 10 8 18 18 21 20 28 28 27 30 32 34 31 28 26 24 26 27 27 24 24 25 26 27 25 31 30 33 36 39 36 35 38 39 41
1 1 5 4 5 3 1 2 5 1 5 13 16 19 16 27 28 32 35 36 35 31 28 25 22 19 19 20 20 21 22 23 23 27 29 25 30 36 37 37 38 38 38 37
4 4 3 4 6 4 3 4 2 3 12 14 18 17 12 29 28 28 30 32 34 27 29 27 20 14 12 14 14 15 16 19 21 22 26 22 27 33 35 34 37 39 38 37
4 5 1 6 8 12 13 2 17 12 19 16 16 10 10 26 27 30 28 31 35 28 30 31 24 21 17 12 7 8 11 12 15 19 22 21 20 26 34 34 34 34 34 34
3 3 2 5 14 12 4 5 18 14 19 16 7 12 17 23 23 25 26 30 32 29 32 33 33 33 25 17 10 7 6 4 7 14 17 20 19 22 29 30 27 30 31 29
3 4 1 4 5 4 5 9 7 13 14 16 17 19 15 19 23 24 28 29 29 32 34 34 39 38 35 30 22 14 9 7 6 2 9 11 14 18 23 25 26 30 25 28
4 5 2 6 10 2 6 5 8 11 13 14 17 20 15 20 23 21 26 27 26 31 35 33 37 41 41 40 36 26 20 19 18 16 11 0 4 10 15 17 16 18 25 28
3 4 6 8 1 4 2 5 8 10 13 14 17 18 16 21 22 22 23 26 27 29 32 34 34 38 38 37 41 37 34 31 28 26 24 23 21 16 9 9 6 7 8 13
1 9 4 3 3 5 3 7 9 10 13 15 17 19 20 19 21 22 21 23 25 28 28 31 30 34 36 31 33 38 37 35 34 32 29 28 29 28 25 24 22 18 17 14
4 4 6 4 3 5 6 5 8 11 13 15 18 20 20 20 24 21 22 23 26 27 27 30 28 30 33 35 30 31 34 33 34 34 33 30 26 23 20 20 17 18 17 17
4 4 4 1 5 5 6 8 4 10 11 13 15 17 20 20 24 27 23 24 26 27 25 28 31 27 29 32 32 30 29 29 29 29 29 29 29 28 26 25 21 16 14 16
3 8 1 4 7 5 5 5 8 9 10 11 13 16 18 18 20 24 26 25 25 27 27 28 31 28 25 29 29 29 27 27 27 26 27 26 27 27 27 27 26 25 23 21
7 6 3 5 6 5 4 4 6 8 8 10 12 16 19 18 19 20 26 25 25 27 28 27 30 31 24 25 27 28 28 25 24 24 25 24 24 24 25 25 26 26 23 23
8 4 7 5 5 4 3 4 5 5 6 8 8 11 14 15 15 16 23 27 26 28 28 27 28 28 23 23 24 24 24 23 21 22 23 24 24 25 24 24 25 26 26 26
14 10 7 6 4 2 1 2 4 6 9 8 8 8 11 14 16 14 18 23 24 23 26 26 25 24 23 21 21 22 23 21 20 22 23 22 23 23 23 24 24 23 22 22
13 12 9 8 5 4 2 1 2 4 7 7 5 7 12 14 15 15 16 19 21 19 22 24 23 22 21 20 19 20 20 21 22 23 22 22 23 22 22 22 23 23 24 22
16 11 10 8 8 7 4 3 6 2 7 7 6 6 11 12 9 12 14 17 19 20 19 22 22 20 19 18 17 17 17 17 19 20 20 20 21 21 21 22 21 22 22 23
18 15 14 12 11 9 5 7 9 8 5 8 7 8 11 11 8 9 12 17 16 19 19 19 21 20 20 20 19 17 17 18 19 20 19 19 19 19 18 19 20 20 21 21
22 19 17 15 13 12 13 13 11 10 6 10 10 10 11 12 7 9 10 14 14 16 19 18 19 21 20 21 20 19 18 18 18 19 18 17 16 16 16 18 19 19 18 18
23 21 20 18 17 17 16 16 12 10 10 14 15 15 14 12 10 9 12 14 13 15 18 17 16 18 19 20 20 19 18 18 17 17 16 15 15 15 16 16 16 15 16 15
24 23 21 20 19 19 17 15 14 14 16 18 18 15 14 14 11 11 14 15 15 15 18 17 15 16 16 16 17 19 19 18 18 17 16 15 14 13 13 13 13 14 14 14
24 23 22 20 19 19 20 18 18 18 18 17 17 16 15 13 12 11 13 16 17 18 19 17 16 15 16 16 15 16 17 17 16 16 16 15 14 12 12 12 11 12 12 12
23 22 21 20 21 22 21 20 20 19 19 21 20 19 19 17 18 17 18 20 20 20 19 17 17 16 15 16 16 16 15 16 15 14 14 14 14 14 12 11 11 10 10 9
25 24 23 23 23 22 22 22 21 19 19 22 22 20 19 17 19 21 23 24 24 22 22 20 19 18 17 17 16 16 16 15 15 15 15 14 14 14 13 12 11 11 9 7
22 22 24 24 23 23 23 23 23 24 22 22 20 18 20 22 23 25 26 26 27 27 26 24 23 22 20 20 18 18 17 17 16 14 14 14 13 13 12 12 11 11 10 7
Wind_Direction
128 115 76 59 45 39 41 30 46 13 26 354 350 351 5 359 359 357 354 352 348 336 330 328 323 310 305 293 286 274 266 260 250 245 243 249 252 254 252 249 250 248 251 253
122 108 74 46 27 44 38 21 31 10 43 349 353 2 5 1 355 354 354 354 345 337 336 330 322 315 303 298 295 285 276 263 256 247 248 248 247 254 254 252 252 248 250 252
202 124 127 43 11 356 47 17 10 22 349 344 351 355 0 356 357 353 351 349 351 348 340 334 325 314 309 303 293 282 279 273 261 252 250 249 245 248 252 252 256 251 250 249
110 346 50 273 263 268 201 320 34 313 326 334 344 340 9 8 4 359 356 355 357 356 353 347 338 328 311 301 292 287 278 272 262 252 248 255 244 244 248 252 254 259 255 256
88 52 166 354 304 317 119 292 38 250 337 349 359 3 2 3 7 7 5 5 3 2 4 5 360 356 339 317 305 293 283 271 258 260 251 253 241 235 246 249 252 254 257 258
58 80 106 250 299 336 148 38 354 348 351 350 343 5 345 1 356 359 6 7 358 12 13 15 25 28 20 0 332 306 286 277 260 257 254 249 248 233 233 242 254 257 260 261
82 102 239 260 326 346 59 259 319 360 348 10 337 347 352 358 359 3 4 360 358 12 17 23 33 39 34 29 22 12 353 312 284 260 259 254 249 241 236 247 252 261 266 268
22 73 303 332 359 107 231 298 326 2 356 6 360 358 4 9 5 5 6 6 359 11 17 25 35 43 43 46 43 45 55 73 83 50 248 254 261 258 257 257 257 254 269 270
146 203 255 266 245 266 250 293 0 1 7 15 9 8 9 11 11 12 7 6 5 11 19 27 33 37 44 47 51 55 62 68 69 76 74 199 248 248 259 259 250 252 264 267
73 274 244 256 218 323 121 38 359 23 16 17 18 13 15 11 12 17 9 10 10 18 23 27 38 38 32 45 52 54 60 63 64 63 66 65 63 64 58 49 35 7 304 285
60 180 233 84 50 6 68 26 5 27 25 20 20 19 16 18 18 16 16 13 16 23 26 26 36 44 37 37 45 54 54 58 62 63 61 60 60 58 55 48 37 29 15 358
215 115 124 144 95 29 41 9 25 24 19 18 18 15 17 16 14 19 22 15 20 26 33 30 34 41 44 35 41 50 50 52 56 60 61 62 64 61 57 56 49 42 30 25
149 138 91 201 129 50 47 7 51 38 25 21 19 15 17 14 9 18 25 19 19 23 31 35 34 39 42 37 34 40 49 49 53 53 52 54 56 56 57 58 48 36 25 15
160 132 89 108 128 73 56 44 43 29 19 17 16 15 14 15 14 16 21 21 21 26 30 34 32 35 35 45 30 36 41 44 45 47 50 50 49 46 44 42 39 38 38 33
170 178 137 116 104 82 58 44 32 25 7 2 21 11 3 8 11 16 19 20 22 30 33 31 34 31 30 33 33 27 33 36 41 45 47 45 45 45 44 41 37 34 34 33
187 191 148 121 105 85 55 50 29 17 354 357 29 16 354 7 15 22 22 20 24 27 29 30 31 29 27 27 33 29 30 31 35 40 41 41 40 39 39 36 34 30 28 25
174 180 163 147 152 151 55 47 13 357 350 7 22 7 346 4 21 27 25 18 19 26 30 28 28 27 27 29 28 28 24 29 38 42 41 39 38 36 36 35 31 30 27 27
189 186 184 184 182 188 184 343 343 351 347 344 5 346 340 357 14 17 24 22 18 25 29 30 25 25 29 29 26 28 28 27 32 36 38 39 40 36 32 32 31 28 25 26
196 198 196 201 214 233 197 268 302 320 320 340 346 343 333 340 3 15 10 9 8 15 22 26 24 24 31 31 31 30 32 34 37 38 35 33 34 34 31 31 30 28 25 24
198 202 211 215 229 249 233 241 273 291 289 314 338 343 346 347 350 15 351 344 359 3 10 17 17 17 20 24 25 24 26 32 33 35 34 34 33 30 29 26 28 26 24 23
204 210 222 233 236 242 251 266 271 277 271 287 312 322 329 342 341 347 328 325 346 351 356 5 7 8 11 17 21 18 20 25 28 30 31 33 34 32 27 25 23 23 22 21
213 218 224 231 239 246 253 266 274 275 270 288 300 303 307 317 316 331 324 331 339 345 345 354 353 358 1 5 10 14 15 19 23 25 26 25 25 24 24 22 19 19 19 21
220 224 229 235 240 248 256 262 266 270 272 283 294 289 301 306 305 318 317 326 332 337 334 339 340 342 347 355 0 4 7 9 12 14 18 20 20 17 13 15 16 12 14 20
225 228 235 242 244 247 249 254 258 265 271 278 284 290 300 309 319 317 321 323 323 325 323 329 330 330 334 340 345 353 359 0 358 0 1 6 7 9 8 6 11 18 18 17
226 231 236 238 241 245 250 254 257 261 265 269 273 276 283 297 302 319 311 315 320 319 318 318 324 325 324 327 331 335 342 347 350 347 347 351 352 353 355 357 359 5 10 11
232 235 239 242 246 251 253 255 256 261 265 266 269 272 275 281 291 299 300 303 308 311 313 316 316 317 318 317 320 322 323 324 331 338 339 337 337 339 339 340 342 345 350 0
239 239 242 246 248 252 253 254 255 258 260 262 268 269 274 280 284 289 293 295 299 302 304 306 308 309 309 311 313 312 311 311 313 318 324 324 321 321 323 326 326 325 327 330
Height
1583 1582 1578 1578 1578 1574 1572 1577 1579 1585 1581 1576 1566 1558 1559 1555 1550 1545 1538 1530 1525 1524 1518 1511 1505 1501 1498 1494 1493 1493 1491 1492 1493 1496 1498 1499 1500 1502 1505 1507 1508 1511 1514 1515
1584 1574 1569 1578 1582 1581 1579 1580 1580 1578 1578 1578 1572 1568 1561 1555 1548 1540 1532 1527 1529 1524 1513 1507 1501 1497 1492 1489 1488 1488 1486 1485 1486 1488 1491 1491 1491 1494 1496 1499 1499 1503 1505 1508
1580 1566 1564 1583 1592 1588 1588 1585 1583 1581 1584 1575 1568 1564 1562 1557 1553 1547 1541 1533 1523 1515 1509 1504 1499 1493 1486 1484 1483 1481 1480 1479 1479 1481 1480 1482 1483 1486 1488 1490 1493 1493 1497 1501
1569 1568 1600 1600 1591 1590 1589 1587 1585 1583 1579 1574 1571 1566 1563 1557 1550 1542 1536 1530 1523 1515 1507 1500 1493 1487 1483 1481 1478 1475 1473 1473 1472 1473 1474 1476 1476 1479 1481 1484 1485 1487 1489 1491
1583 1588 1597 1589 1589 1588 1588 1589 1581 1580 1575 1571 1568 1564 1561 1557 1552 1546 1540 1532 1525 1517 1508 1499 1493 1486 1481 1477 1474 1471 1468 1466 1467 1467 1467 1469 1470 1472 1476 1478 1478 1479 1480 1482
1585 1597 1616 1595 1584 1582 1579 1582 1579 1577 1573 1570 1566 1563 1561 1557 1552 1547 1542 1535 1528 1519 1509 1501 1493 1485 1479 1475 1470 1466 1463 1462 1461 1461 1462 1463 1465 1466 1468 1470 1471 1472 1474 1475
1586 1592 1596 1588 1584 1579 1588 1594 1579 1577 1574 1570 1568 1566 1562 1557 1552 1547 1541 1535 1529 1519 1510 1501 1492 1484 1477 1471 1465 1462 1460 1458 1457 1456 1457 1458 1459 1460 1461 1463 1465 1466 1467 1467
1586 1601 1606 1586 1585 1589 1587 1582 1579 1576 1573 1570 1567 1564 1560 1556 1551 1546 1540 1534 1527 1519 1509 1501 1490 1483 1477 1469 1466 1461 1458 1456 1454 1453 1452 1453 1454 1453 1455 1456 1458 1460 1460 1460
1596 1599 1585 1585 1584 1583 1582 1580 1578 1576 1573 1571 1568 1564 1560 1556 1551 1547 1542 1536 1530 1521 1512 1503 1493 1485 1479 1473 1467 1463 1459 1456 1452 1451 1449 1448 1449 1450 1449 1452 1452 1451 1452 1453
1590 1586 1584 1583 1582 1582 1580 1580 1578 1576 1573 1570 1568 1565 1561 1556 1551 1546 1542 1536 1530 1522 1515 1507 1498 1490 1486 1481 1473 1470 1462 1458 1456 1453 1451 1449 1448 1447 1447 1450 1447 1446 1447 1446
1583 1583 1583 1583 1582 1581 1580 1579 1577 1575 1573 1571 1567 1564 1561 1558 1553 1549 1544 1539 1532 1526 1519 1513 1506 1498 1494 1488 1481 1475 1472 1467 1462 1459 1457 1456 1455 1453 1451 1450 1449 1446 1449 1445
1590 1580 1581 1581 1581 1580 1579 1578 1576 1574 1572 1570 1567 1564 1561 1557 1553 1549 1544 1539 1533 1527 1521 1516 1510 1504 1497 1494 1489 1483 1478 1474 1471 1467 1465 1463 1461 1459 1458 1456 1454 1449 1451 1447
1580 1580 1580 1579 1580 1579 1578 1577 1576 1574 1573 1571 1568 1565 1561 1557 1553 1548 1543 1539 1533 1528 1523 1518 1513 1508 1503 1499 1495 1489 1484 1482 1478 1474 1472 1469 1466 1464 1462 1460 1456 1453 1450 1446
1578 1578 1579 1578 1578 1578 1577 1577 1576 1574 1572 1570 1568 1564 1560 1557 1554 1549 1543 1539 1535 1529 1524 1519 1515 1510 1507 1501 1498 1494 1490 1486 1482 1479 1477 1474 1470 1467 1464 1461 1458 1455 1453 1449
1577 1577 1576 1577 1577 1577 1576 1576 1575 1573 1572 1569 1567 1564 1560 1556 1553 1550 1546 1541 1537 1531 1526 1521 1516 1512 1510 1505 1500 1497 1493 1489 1486 1484 1481 1478 1475 1472 1468 1466 1463 1459 1456 1453
1574 1575 1576 1576 1576 1576 1575 1575 1574 1573 1571 1569 1567 1566 1562 1559 1555 1551 1547 1543 1538 1533 1528 1524 1520 1517 1513 1509 1505 1502 1499 1495 1492 1488 1484 1481 1478 1476 1473 1470 1466 1463 1459 1455
1571 1573 1574 1574 1574 1574 1573 1573 1572 1571 1570 1568 1566 1565 1562 1559 1556 1552 1548 1545 1541 1537 1532 1529 1524 1521 1518 1513 1509 1506 1503 1499 1496 1492 1489 1486 1483 1480 1478 1474 1471 1467 1465 1460
1568 1569 1570 1572 1572 1572 1572 1571 1570 1569 1567 1566 1565 1564 1561 1558 1556 1553 1550 1548 1545 1541 1537 1532 1528 1525 1521 1517 1514 1510 1506 1503 1498 1494 1492 1489 1486 1484 1481 1479 1475 1471 1467 1463
1564 1565 1567 1568 1569 1569 1569 1569 1568 1568 1567 1565 1563 1562 1560 1557 1555 1553 1550 1548 1546 1542 1539 1535 1531 1528 1524 1520 1516 1513 1510 1506 1502 1498 1495 1492 1488 1486 1484 1481 1477 1473 1469 1465
1560 1562 1563 1565 1565 1566 1566 1566 1565 1565 1565 1563 1562 1561 1559 1556 1554 1552 1550 1547 1545 1542 1538 1535 1532 1528 1524 1521 1517 1514 1510 1506 1503 1500 1496 1493 1490 1488 1486 1483 1478 1474 1472 1468
1555 1558 1559 1560 1562 1562 1563 1563 1562 1562 1561 1560 1559 1558 1556 1555 1553 1551 1549 1547 1545 1542 1538 1535 1532 1529 1525 1522 1518 1515 1511 1508 1504 1501 1498 1495 1493 1491 1488 1484 1480 1477 1475 1472
1550 1552 1554 1556 1557 1557 1558 1558 1558 1558 1557 1557 1556 1555 1553 1552 1550 1548 1546 1545 1543 1540 1537 1535 1532 1530 1526 1523 1519 1516 1513 1509 1506 1503 1500 1498 1495 1492 1489 1486 1483 1480 1477 1474
1544 1547 1549 1551 1551 1552 1553 1553 1553 1553 1553 1552 1551 1550 1549 1548 1546 1544 1542 1542 1539 1538 1536 1534 1532 1529 1526 1523 1520 1516 1513 1509 1506 1504 1501 1498 1495 1492 1489 1486 1484 1481 1478 1475
1540 1542 1543 1545 1547 1547 1547 1548 1548 1548 1548 1548 1547 1547 1546 1544 1542 1541 1539 1538 1536 1535 1533 1531 1529 1527 1524 1522 1519 1515 1512 1510 1506 1503 1500 1497 1495 1492 1489 1487 1484 1481 1479 1477
1534 1536 1538 1540 1540 1541 1542 1542 1543 1543 1543 1542 1541 1541 1540 1539 1538 1537 1536 1534 1533 1531 1530 1528 1526 1524 1521 1519 1517 1514 1511 1508 1505 1503 1500 1497 1494 1492 1489 1486 1484 1481 1479 1477
1529 1530 1532 1533 1534 1535 1535 1536 1536 1536 1537 1536 1535 1535 1535 1534 1533 1531 1531 1529 1528 1527 1525 1523 1521 1520 1518 1515 1513 1511 1509 1506 1503 1501 1498 1496 1494 1491 1489 1487 1484 1481 1479 1477
1522 1524 1525 1526 1527 1528 1529 1530 1530 1530 1531 1530 1529 1530 1530 1529 1528 1527 1526 1524 1522 1521 1520 1518 1516 1514 1513 1511 1508 1506 1504 1502 1500 1498 1495 1493 1490 1488 1486 1484 1482 1480 1478 1475